TimeCDT,TemperatureF,Dew PointF,Humidity,Sea Level PressureIn,VisibilityMPH,Wind Direction,Wind SpeedMPH,Gust SpeedMPH,PrecipitationIn,Events,Conditions,WindDirDegrees,DateUTC
12:15 AM,55.9,48.9,77,30.31,10.0,NE,6.9,-,N/A,,Clear,50,2013-10-25 05:15:00
12:35 AM,55.9,48.4,76,30.32,10.0,NE,5.8,-,N/A,,Clear,40,2013-10-25 05:35:00
12:55 AM,54.9,47.8,77,30.33,10.0,NE,4.6,-,N/A,,Clear,50,2013-10-25 05:55:00
1:15 AM,54.3,47.8,79,30.33,10.0,NE,4.6,-,N/A,,Clear,50,2013-10-25 06:15:00
1:35 AM,53.1,47.5,81,30.34,10.0,ENE,4.6,-,N/A,,Clear,60,2013-10-25 06:35:00
1:55 AM,52.9,47.3,81,30.35,10.0,ENE,5.8,-,N/A,,Clear,60,2013-10-25 06:55:00
2:15 AM,53.2,46.8,79,30.35,10.0,East,5.8,-,N/A,,Clear,80,2013-10-25 07:15:00
2:35 AM,52.2,46.2,80,30.36,10.0,ENE,4.6,-,N/A,,Clear,70,2013-10-25 07:35:00
2:55 AM,51.8,45.5,79,30.36,10.0,East,4.6,-,N/A,,Clear,80,2013-10-25 07:55:00
3:15 AM,52.2,44.8,76,30.37,10.0,East,8.1,-,N/A,,Clear,90,2013-10-25 08:15:00
3:35 AM,51.8,43.7,74,30.37,10.0,East,5.8,-,N/A,,Clear,80,2013-10-25 08:35:00
3:55 AM,50.5,43.7,77,30.38,10.0,East,4.6,-,N/A,,Clear,80,2013-10-25 08:55:00
4:15 AM,50.0,43.3,78,30.38,10.0,East,5.8,-,N/A,,Clear,80,2013-10-25 09:15:00
4:35 AM,50.5,41.0,70,30.39,10.0,East,8.1,-,N/A,,Clear,80,2013-10-25 09:35:00
4:55 AM,50.4,39.2,66,30.40,10.0,East,8.1,17.3,N/A,,Clear,90,2013-10-25 09:55:00
5:15 AM,50.0,37.9,63,30.41,10.0,East,10.4,-,N/A,,Clear,80,2013-10-25 10:15:00
5:35 AM,49.5,36.7,61,30.41,10.0,East,10.4,-,N/A,,Clear,80,2013-10-25 10:35:00
5:55 AM,48.9,36.0,61,30.42,10.0,East,8.1,-,N/A,,Clear,80,2013-10-25 10:55:00
6:15 AM,48.6,35.2,60,30.43,10.0,East,6.9,-,N/A,,Clear,80,2013-10-25 11:15:00
6:35 AM,48.2,34.9,60,30.43,10.0,East,6.9,-,N/A,,Clear,90,2013-10-25 11:35:00
6:55 AM,47.8,34.7,60,30.44,10.0,East,6.9,-,N/A,,Clear,90,2013-10-25 11:55:00
7:15 AM,47.5,34.3,60,30.44,10.0,East,9.2,-,N/A,,Clear,90,2013-10-25 12:15:00
7:35 AM,47.1,34.0,60,30.44,10.0,East,8.1,-,N/A,,Clear,90,2013-10-25 12:35:00
7:55 AM,46.9,34.0,61,30.45,10.0,East,8.1,-,N/A,,Clear,90,2013-10-25 12:55:00
8:15 AM,47.5,34.3,60,30.46,10.0,East,6.9,-,N/A,,Clear,80,2013-10-25 13:15:00
8:35 AM,48.2,34.2,58,30.47,10.0,East,10.4,17.3,N/A,,Clear,80,2013-10-25 13:35:00
8:55 AM,49.3,34.3,56,30.48,10.0,East,8.1,-,N/A,,Clear,80,2013-10-25 13:55:00
9:15 AM,50.0,34.2,55,30.48,10.0,ENE,12.7,17.3,N/A,,Clear,70,2013-10-25 14:15:00
9:35 AM,51.1,34.2,52,30.48,10.0,East,10.4,20.7,N/A,,Clear,90,2013-10-25 14:35:00
9:55 AM,51.8,32.9,49,30.48,10.0,East,17.3,21.9,N/A,,Clear,80,2013-10-25 14:55:00
10:15 AM,52.9,33.3,47,30.48,10.0,East,12.7,20.7,N/A,,Clear,100,2013-10-25 15:15:00
10:35 AM,53.6,33.4,46,30.48,10.0,East,15.0,20.7,N/A,,Clear,80,2013-10-25 15:35:00
10:55 AM,54.9,34.3,46,30.47,10.0,East,13.8,18.4,N/A,,Clear,90,2013-10-25 15:55:00
11:15 AM,54.9,33.8,45,30.47,10.0,East,11.5,17.3,N/A,,Clear,90,2013-10-25 16:15:00
11:35 AM,56.8,35.8,45,30.47,10.0,East,11.5,17.3,N/A,,Clear,100,2013-10-25 16:35:00
11:55 AM,56.8,35.1,44,30.47,10.0,East,9.2,-,N/A,,Clear,100,2013-10-25 16:55:00
12:15 PM,57.9,35.2,43,30.46,10.0,East,11.5,-,N/A,,Clear,80,2013-10-25 17:15:00
12:35 PM,58.5,36.0,43,30.46,10.0,ENE,8.1,16.1,N/A,,Clear,70,2013-10-25 17:35:00
12:55 PM,59.0,36.0,42,30.44,10.0,East,6.9,10.4,N/A,,Clear,90,2013-10-25 17:55:00
1:15 PM,59.9,36.9,42,30.43,10.0,East,8.1,-,N/A,,Clear,100,2013-10-25 18:15:00
1:35 PM,60.1,37.6,43,30.42,10.0,ESE,6.9,-,N/A,,Clear,120,2013-10-25 18:35:00
1:55 PM,60.8,37.2,42,30.40,10.0,East,10.4,-,N/A,,Clear,90,2013-10-25 18:55:00
2:15 PM,61.5,38.3,42,30.39,10.0,East,6.9,-,N/A,,Clear,80,2013-10-25 19:15:00
2:35 PM,61.9,38.3,42,30.38,10.0,ESE,10.4,-,N/A,,Clear,110,2013-10-25 19:35:00
2:55 PM,62.2,38.8,42,30.38,10.0,ENE,9.2,-,N/A,,Clear,70,2013-10-25 19:55:00
3:15 PM,63.1,39.7,42,30.37,10.0,East,5.8,-,N/A,,Clear,100,2013-10-25 20:15:00
3:35 PM,63.1,39.7,42,30.36,10.0,ENE,10.4,-,N/A,,Clear,70,2013-10-25 20:35:00
3:55 PM,63.5,40.8,43,30.36,10.0,ESE,6.9,-,N/A,,Clear,120,2013-10-25 20:55:00
4:15 PM,63.5,40.1,42,30.36,10.0,East,4.6,-,N/A,,Clear,80,2013-10-25 21:15:00
4:35 PM,63.3,40.3,43,30.35,10.0,East,9.2,-,N/A,,Clear,80,2013-10-25 21:35:00
4:55 PM,63.1,41.0,44,30.35,10.0,East,8.1,-,N/A,,Clear,90,2013-10-25 21:55:00
5:15 PM,62.6,40.8,45,30.34,10.0,East,8.1,-,N/A,,Clear,90,2013-10-25 22:15:00
5:35 PM,62.2,41.5,47,30.33,10.0,East,6.9,-,N/A,,Clear,100,2013-10-25 22:35:00
5:55 PM,60.8,41.0,48,30.33,10.0,East,6.9,-,N/A,,Clear,80,2013-10-25 22:55:00
6:15 PM,59.0,42.1,53,30.33,10.0,East,5.8,-,N/A,,Clear,90,2013-10-25 23:15:00
6:35 PM,57.2,42.3,57,30.33,10.0,East,4.6,-,N/A,,Clear,90,2013-10-25 23:35:00
6:55 PM,55.2,42.8,63,30.33,10.0,East,4.6,-,N/A,,Clear,80,2013-10-25 23:55:00
7:15 PM,54.5,43.3,66,30.33,10.0,ENE,4.6,-,N/A,,Clear,70,2013-10-26 00:15:00
7:35 PM,53.8,43.7,69,30.33,10.0,East,4.6,-,N/A,,Clear,80,2013-10-26 00:35:00
7:55 PM,53.6,43.7,69,30.34,10.0,ENE,4.6,-,N/A,,Clear,70,2013-10-26 00:55:00
8:15 PM,52.2,43.7,73,30.34,10.0,ENE,4.6,-,N/A,,Clear,70,2013-10-26 01:15:00
8:35 PM,52.0,43.5,73,30.34,10.0,ENE,4.6,-,N/A,,Clear,70,2013-10-26 01:35:00
8:55 PM,51.8,43.7,74,30.34,10.0,ENE,3.5,-,N/A,,Clear,70,2013-10-26 01:55:00
9:15 PM,51.1,43.7,76,30.34,10.0,East,3.5,-,N/A,,Clear,80,2013-10-26 02:15:00
9:35 PM,51.4,43.5,74,30.34,10.0,Calm,Calm,-,N/A,,Clear,0,2013-10-26 02:35:00
9:55 PM,51.3,43.3,74,30.34,10.0,East,3.5,-,N/A,,Clear,100,2013-10-26 02:55:00
10:15 PM,51.1,43.0,74,30.34,10.0,Calm,Calm,-,N/A,,Clear,0,2013-10-26 03:15:00
10:35 PM,49.5,43.7,81,30.34,10.0,Calm,Calm,-,N/A,,Clear,0,2013-10-26 03:35:00
10:55 PM,50.2,43.3,77,30.33,10.0,East,3.5,-,N/A,,Clear,100,2013-10-26 03:55:00
11:15 PM,49.8,43.2,78,30.32,10.0,East,4.6,-,N/A,,Clear,90,2013-10-26 04:15:00
11:35 PM,49.3,43.2,79,30.32,10.0,ESE,5.8,-,N/A,,Clear,120,2013-10-26 04:35:00
11:55 PM,49.1,43.2,80,30.30,10.0,ESE,6.9,-,N/A,,Clear,110,2013-10-26 04:55:00